Regional Weather Roundup
Issued by NWS

Home | Current Version | Previous Version | Graphics & Text | Print | Product List | Glossary On
Versions: 1 2 3 4 5 6 7 8 9 10 11 12 13 14 15 16 17 18 19 20 21 22 23 24 25 26 27
000
ASUS45 KBOI 260510
RWRID

IDAHO REGIONAL WEATHER ROUNDUP
NATIONAL WEATHER SERVICE BOISE ID
1100 PM MDT THU MAY 25 2017

NOTE: "FAIR" INDICATES FEW OR NO CLOUDS BELOW 12000 FEET
WITH NO SIGNIFICANT WEATHER AND/OR OBSTRUCTIONS TO VISIBILITY

IDZ012-014-260600-
SOUTHWEST IDAHO


CITY           SKY/WX    TMP DP  RH WIND       PRES   REMARKS
BOISE          MOCLDY    54  40  59 W8        29.77R
CALDWELL       MOCLDY    54  42  64 W10       29.78R
MOUNTAIN HOME  MOCLDY    55  35  46 NW12      29.76R
$$

IDZ016-017-260600-
SOUTHCENTRAL IDAHO


CITY           SKY/WX    TMP DP  RH WIND       PRES   REMARKS
BURLEY         CLOUDY    54  36  50 E7        29.76R
JEROME         CLOUDY    57  30  35 SW6G18    29.79R
TWIN FALLS     CLOUDY    56  32  40 NW13      29.80R
$$

IDZ019>023-260600-
SOUTHEAST IDAHO


CITY           SKY/WX    TMP DP  RH WIND       PRES   REMARKS
IDAHO FALLS    PTCLDY    52  28  39 S5        29.82R
POCATELLO      CLEAR     48  31  51 SE5       29.80R
REXBURG        CLOUDY    50  33  52 N8        29.83R
$$

IDZ006-010-011-018-031-032-260600-
CENTRAL IDAHO MOUNTAINS


CITY           SKY/WX    TMP DP  RH WIND       PRES   REMARKS
MCCALL         RAIN      43  39  86 N9        29.82R
HAILEY         PTCLDY    46  34  61 CALM      29.81R
STANLEY          N/A     39  36  89 CALM      29.85R
SALMON         CLOUDY    50  37  62 SW15      29.84R
CHALLIS        CLOUDY    46  39  76 NW9       29.84R
$$

IDZ002-004-006-007-026-260600-
NORTHERN IDAHO


CITY           SKY/WX    TMP DP  RH WIND       PRES   REMARKS
LEWISTON       MOCLDY    54  43  66 S6        29.84R
LOWELL           N/A     50  44  80 CALM      29.85R
COEUR D`ALENE  PTCLDY    51  43  74 SW6       29.86R
MULLAN PASS    MOCLDY    40  34  79 N7        29.90R
$$




USA.gov is the U.S. government's official web portal to all federal, state and local government web resources and services.